Wind_Speed
8 8 9 10 10 11 11 11 10 10 10 10 10 9 9 9 8 8 8 8 7 7 7 6 7 7 7 6 6 6 7 7 7 6 6 7 6 6 6 6 6 6 6
8 8 8 9 10 11 11 10 10 10 10 10 9 9 9 9 8 8 8 8 7 7 6 6 7 7 7 6 6 6 6 7 6 6 6 6 6 6 6 6 5 6 6
7 8 8 9 10 10 10 10 10 9 9 9 9 8 8 8 8 8 8 8 7 7 6 6 6 6 6 6 6 6 6 6 6 6 6 6 6 6 6 6 5 6 6
7 7 8 9 9 10 10 10 9 9 9 9 9 8 8 8 7 7 7 7 7 7 7 6 6 5 6 6 6 6 6 6 6 6 6 6 6 6 6 6 5 6 6
7 7 8 8 9 9 9 9 9 9 9 9 8 8 7 7 7 7 7 7 7 7 6 6 6 6 6 6 6 6 6 6 6 6 6 6 6 6 5 5 6 6 6
7 7 8 8 9 8 9 8 8 9 9 9 8 8 7 7 7 7 7 7 7 6 6 6 6 6 6 6 6 6 5 5 6 6 6 6 6 6 6 6 6 5 5
7 8 8 8 8 8 8 8 8 8 8 8 8 8 7 7 7 7 7 6 6 6 5 5 6 6 6 6 6 6 6 5 6 6 6 6 6 6 6 6 5 5 5
7 8 8 8 8 8 8 8 7 7 7 7 7 7 7 7 7 6 6 6 6 5 5 5 5 5 6 6 5 5 6 6 6 6 6 6 5 5 5 5 5 5 5
8 8 8 8 8 8 7 7 7 7 7 7 6 7 7 7 6 6 6 6 6 5 5 5 5 5 6 6 6 5 5 6 6 6 6 6 5 5 5 5 4 4 4
9 8 8 8 8 7 7 7 6 7 6 6 6 6 6 6 6 6 5 5 5 5 5 5 5 5 6 6 6 5 6 6 6 6 6 6 5 5 5 4 4 4 3
8 8 8 7 7 7 7 7 6 6 5 5 5 5 5 6 5 5 5 5 5 5 5 5 6 6 6 6 6 6 6 6 6 6 6 5 5 5 4 3 3 4 3
8 8 8 8 7 6 6 6 6 5 5 5 5 4 5 5 5 5 5 5 5 6 6 5 6 6 6 6 6 6 6 5 5 5 5 5 4 4 4 3 3 3 2
8 7 7 7 7 6 5 5 5 5 5 5 5 4 4 4 5 5 5 5 5 5 5 5 5 5 5 5 5 5 5 5 5 4 4 4 4 3 3 3 2 2 2
8 8 7 7 6 5 5 4 4 4 5 5 5 4 4 3 4 4 4 4 4 5 4 4 4 4 4 4 4 4 4 4 4 4 3 3 3 3 2 2 2 2 1
8 8 7 7 6 5 4 4 4 3 3 4 4 4 3 3 3 3 3 3 3 3 3 3 3 2 2 3 3 3 3 3 3 3 3 3 2 2 1 2 2 2 1
9 8 7 7 6 5 4 3 3 3 3 2 2 3 2 2 2 3 3 3 3 3 2 2 1 1 1 1 2 2 2 3 3 2 2 2 2 2 2 2 2 2 2
9 9 8 7 6 5 4 4 3 3 1 1 2 2 2 1 1 1 2 2 2 1 1 0 0 0 1 1 2 2 2 2 2 2 2 3 3 3 2 3 3 3 3
9 9 8 7 6 5 4 3 3 3 2 1 1 2 1 1 0 1 1 1 1 1 1 1 1 2 1 2 2 2 3 3 3 3 3 3 4 4 4 5 5 5 5
10 9 8 7 6 5 4 4 3 2 2 1 1 2 2 2 2 2 3 3 3 3 3 2 3 3 3 4 4 4 5 5 5 5 5 5 6 6 6 7 7 7 6
10 9 8 7 6 5 4 4 3 2 2 3 2 3 3 3 3 4 4 4 5 4 4 4 4 4 5 5 6 6 7 7 7 7 8 8 8 8 8 9 9 9 9
10 9 8 7 6 5 4 4 3 3 3 3 4 4 4 4 4 4 5 5 5 6 5 5 5 6 6 7 8 8 9 9 10 10 10 10 10 10 10 11 11 11 11
10 9 8 7 6 5 5 4 4 3 3 3 4 4 4 5 5 6 5 5 5 6 6 6 6 7 8 9 9 10 11 11 11 11 12 13 13 13 13 13 13 13 14
10 9 9 8 7 6 5 5 5 4 4 4 4 5 5 6 6 5 5 5 6 6 7 7 8 9 9 10 11 11 12 13 13 14 14 14 15 15 15 16 16 16 16
9 9 9 8 8 7 6 6 5 5 5 4 4 4 5 5 4 4 5 6 7 7 8 9 10 10 11 12 12 13 14 14 15 16 16 17 17 17 17 18 19 18 18
10 9 8 8 8 8 7 6 6 5 5 5 5 5 4 4 4 5 5 6 7 8 9 10 10 11 12 13 13 14 14 15 15 16 17 18 18 19 19 19 19 20 20
11 9 8 8 8 7 7 6 6 6 6 5 6 5 5 5 5 6 6 7 7 8 9 10 11 12 13 14 14 15 15 16 17 17 18 18 19 20 21 21 21 20 20
Wind_Direction
75 78 77 74 73 70 67 64 61 60 58 57 56 56 56 56 57 63 66 68 70 67 63 62 62 61 67 77 85 91 93 94 98 102 103 99 99 101 106 109 106 108 111
73 76 74 72 71 69 66 64 61 60 59 58 58 60 59 58 59 63 64 65 66 66 66 65 63 65 69 73 77 83 90 87 96 99 98 98 100 105 108 109 109 112 113
72 74 73 71 69 67 66 65 64 61 59 59 60 61 59 56 57 60 63 62 63 65 68 66 64 70 73 72 71 75 86 90 97 95 96 98 100 105 108 108 111 112 115
70 73 73 72 69 68 67 66 64 61 60 61 62 61 56 53 55 60 64 62 63 65 66 66 67 68 65 71 75 78 81 86 96 94 95 99 103 107 110 111 114 113 115
71 74 75 73 71 70 69 68 65 63 61 62 62 60 56 55 56 59 63 62 62 63 64 65 65 66 67 72 75 79 78 80 91 92 96 99 101 102 104 107 111 112 114
70 73 73 72 71 70 70 69 68 66 64 64 61 58 56 57 59 62 64 65 65 65 64 63 63 64 66 70 75 78 76 78 83 87 92 95 96 96 99 102 108 114 117
68 71 72 71 70 70 70 70 70 68 66 64 59 57 55 56 62 66 65 65 65 65 66 65 62 64 66 69 73 74 77 80 85 86 85 87 87 89 93 98 104 114 116
68 70 71 68 66 68 70 69 68 69 67 63 57 56 56 58 62 64 63 63 63 63 66 65 63 63 66 70 73 79 80 81 83 84 83 82 82 86 90 96 103 111 116
67 67 66 65 65 66 69 67 64 66 66 62 57 55 55 56 59 61 59 60 61 61 65 65 64 65 66 67 71 78 80 79 82 82 82 82 80 85 89 93 100 108 113
65 64 63 63 63 64 68 67 67 65 63 60 56 54 54 55 57 61 60 61 65 69 70 69 69 73 73 71 69 79 79 78 81 78 80 80 77 78 84 89 98 106 116
63 62 60 61 63 64 66 67 67 63 58 55 56 56 58 59 60 63 62 64 71 76 76 75 71 78 76 72 71 80 78 79 80 77 78 78 74 78 81 83 93 105 108
59 60 57 55 57 58 63 64 62 63 57 56 60 63 66 66 65 65 65 71 76 78 77 77 72 78 77 74 74 75 74 77 76 74 72 70 70 74 73 70 79 101 101
57 57 55 49 48 53 60 63 58 61 62 63 63 64 68 69 67 69 71 73 77 81 80 79 78 79 77 74 74 71 69 69 65 64 64 66 68 70 69 66 66 73 81
52 52 51 45 42 45 52 54 51 61 64 64 63 58 61 67 72 77 77 76 80 81 80 80 83 80 73 74 69 62 58 61 57 52 52 50 62 66 62 48 41 36 34
46 45 46 42 37 36 39 44 46 55 60 63 59 52 58 67 66 85 83 87 103 94 85 83 85 87 75 70 58 45 39 47 47 44 39 33 36 40 29 15 9 1 353
41 40 41 40 38 35 37 39 32 35 51 57 51 45 47 68 73 89 97 108 110 107 96 94 87 70 47 34 27 22 22 28 27 20 13 8 0 350 347 344 338 332 334
37 36 37 35 32 35 47 43 26 20 18 25 39 34 43 61 73 89 107 122 126 122 101 53 252 318 308 305 308 314 330 349 351 349 340 328 315 311 311 317 317 316 311
36 29 26 31 29 29 35 28 18 18 11 3 26 14 357 336 327 235 209 214 201 208 246 287 283 270 280 292 293 296 297 303 308 309 310 303 297 298 300 303 305 303 298
29 26 21 26 24 18 14 12 15 15 355 347 344 336 329 314 280 257 255 245 239 242 252 272 280 276 273 277 282 281 286 283 285 285 290 287 285 288 294 297 297 294 291
22 24 23 23 18 6 358 356 356 341 319 325 317 314 314 300 268 262 261 253 256 255 256 264 274 269 270 272 274 277 281 282 281 279 282 282 281 284 288 292 293 292 287
15 17 20 18 18 14 2 355 358 348 328 316 320 308 305 295 271 271 273 265 264 262 263 265 273 272 273 277 278 280 283 284 283 282 282 281 281 282 283 286 289 290 286
8 5 8 10 11 13 8 2 355 339 320 303 306 302 298 278 268 273 273 268 266 266 263 267 274 279 280 281 281 280 282 285 283 283 283 279 281 282 281 282 285 286 286
2 359 357 359 1 4 1 349 341 334 321 305 296 289 285 281 273 263 262 263 262 266 267 272 276 282 283 283 283 280 279 282 284 285 285 282 279 280 279 280 282 282 282
356 355 357 357 354 353 351 344 338 331 324 312 302 291 283 288 284 269 258 258 264 269 271 272 276 280 280 282 283 280 279 281 282 283 283 283 280 279 278 277 278 278 279
358 355 356 352 351 349 348 344 340 334 325 317 307 300 290 286 287 269 264 262 263 268 271 275 279 283 283 282 282 283 284 283 283 282 281 282 280 280 279 279 276 276 277
355 354 354 352 350 348 346 343 335 330 325 313 308 301 295 286 278 269 267 269 272 278 277 277 280 284 285 284 284 284 284 284 287 286 284 282 281 282 281 280 278 277 277
Height
5886 5885 5885 5884 5884 5884 5884 5884 5884 5884 5884 5885 5885 5885 5885 5885 5885 5886 5886 5886 5886 5886 5885 5885 5885 5885 5886 5886 5886 5886 5886 5887 5887 5888 5888 5888 5888 5888 5889 5889 5890 5890 5890
5887 5886 5886 5886 5885 5885 5885 5885 5886 5886 5886 5886 5886 5886 5886 5887 5887 5887 5887 5887 5887 5887 5887 5887 5887 5887 5887 5887 5887 5887 5887 5888 5888 5889 5889 5889 5889 5889 5890 5890 5891 5891 5891
5888 5888 5887 5887 5887 5887 5886 5887 5887 5887 5887 5887 5887 5887 5887 5888 5888 5888 5888 5888 5888 5888 5888 5888 5888 5888 5888 5888 5888 5888 5889 5889 5889 5890 5890 5890 5890 5891 5891 5891 5892 5892 5892
5889 5889 5889 5888 5888 5888 5888 5888 5888 5888 5888 5888 5888 5888 5889 5889 5889 5889 5889 5889 5889 5889 5890 5890 5890 5890 5890 5890 5890 5890 5890 5890 5891 5891 5891 5891 5891 5892 5892 5892 5892 5893 5893
5891 5890 5890 5889 5889 5889 5889 5889 5889 5889 5889 5889 5889 5889 5889 5889 5890 5890 5890 5890 5890 5890 5891 5891 5891 5891 5891 5891 5891 5891 5891 5891 5892 5892 5892 5892 5892 5892 5893 5893 5893 5893 5894
5892 5891 5890 5890 5890 5890 5890 5890 5890 5890 5890 5890 5890 5890 5890 5890 5890 5891 5891 5891 5891 5891 5892 5892 5892 5892 5892 5892 5892 5892 5892 5892 5892 5893 5893 5893 5893 5893 5893 5893 5894 5894 5894
5893 5892 5891 5891 5891 5891 5891 5891 5891 5891 5891 5891 5891 5891 5891 5891 5892 5892 5892 5892 5892 5893 5893 5893 5893 5893 5893 5893 5893 5893 5893 5893 5893 5894 5894 5894 5894 5894 5894 5894 5895 5895 5895
5893 5893 5892 5892 5892 5892 5892 5892 5892 5892 5892 5892 5892 5892 5892 5893 5893 5893 5893 5893 5893 5893 5894 5894 5894 5894 5894 5894 5894 5894 5894 5894 5894 5894 5894 5895 5895 5895 5895 5895 5896 5896 5896
5894 5894 5893 5893 5893 5893 5893 5893 5893 5893 5893 5893 5893 5893 5893 5893 5894 5894 5894 5894 5894 5894 5894 5895 5895 5895 5895 5895 5895 5895 5895 5895 5895 5895 5896 5896 5896 5896 5896 5896 5897 5897 5897
5896 5895 5895 5894 5894 5894 5894 5894 5893 5894 5894 5894 5894 5894 5894 5894 5894 5895 5895 5895 5895 5895 5895 5896 5896 5896 5896 5896 5896 5896 5896 5897 5897 5897 5897 5897 5897 5897 5897 5897 5897 5898 5898
5897 5896 5896 5895 5895 5895 5895 5894 5894 5894 5895 5895 5895 5895 5895 5895 5895 5895 5896 5896 5896 5896 5896 5897 5897 5897 5897 5898 5898 5898 5898 5898 5898 5898 5898 5898 5898 5898 5898 5898 5898 5898 5899
5898 5897 5897 5897 5896 5896 5896 5895 5895 5895 5895 5895 5895 5895 5896 5896 5896 5896 5896 5896 5897 5897 5897 5898 5898 5898 5899 5899 5899 5899 5899 5899 5899 5899 5899 5899 5899 5899 5899 5899 5899 5899 5899
5899 5898 5898 5898 5897 5897 5896 5896 5896 5896 5896 5896 5896 5896 5896 5897 5897 5897 5897 5897 5898 5898 5898 5899 5899 5899 5900 5900 5900 5900 5900 5900 5900 5900 5900 5900 5900 5900 5900 5900 5900 5899 5899
5900 5899 5899 5898 5898 5898 5897 5897 5897 5897 5897 5897 5897 5897 5897 5897 5897 5897 5898 5898 5899 5899 5899 5900 5900 5900 5900 5901 5901 5901 5901 5901 5901 5901 5900 5900 5900 5900 5900 5900 5900 5900 5900
5901 5900 5900 5899 5899 5898 5898 5898 5897 5897 5897 5897 5897 5897 5897 5897 5898 5898 5898 5898 5899 5900 5900 5900 5900 5901 5901 5901 5901 5901 5901 5901 5901 5901 5901 5901 5901 5900 5900 5900 5900 5900 5900
5902 5901 5901 5900 5899 5899 5899 5898 5898 5897 5897 5897 5897 5897 5897 5897 5898 5898 5898 5899 5899 5900 5900 5900 5901 5901 5901 5901 5902 5902 5902 5902 5901 5901 5901 5901 5901 5900 5900 5900 5900 5900 5900
5903 5902 5901 5901 5900 5899 5899 5899 5898 5898 5898 5897 5897 5897 5897 5898 5898 5898 5898 5899 5899 5900 5900 5900 5901 5901 5901 5901 5901 5901 5901 5901 5901 5901 5901 5901 5900 5900 5900 5900 5900 5900 5899
5904 5903 5902 5901 5900 5900 5900 5899 5899 5898 5898 5897 5897 5897 5897 5898 5898 5898 5899 5899 5899 5900 5900 5900 5901 5901 5901 5901 5901 5901 5901 5901 5901 5901 5901 5900 5900 5900 5900 5900 5899 5899 5899
5905 5904 5903 5902 5901 5900 5900 5899 5899 5898 5898 5897 5897 5897 5897 5897 5897 5898 5898 5898 5899 5899 5900 5900 5900 5900 5900 5900 5900 5900 5900 5901 5900 5900 5900 5900 5899 5899 5899 5899 5898 5898 5898
5906 5905 5903 5902 5902 5901 5900 5899 5898 5898 5898 5897 5897 5897 5897 5897 5897 5897 5897 5898 5898 5899 5899 5899 5899 5900 5900 5900 5900 5900 5900 5899 5899 5899 5899 5898 5898 5898 5898 5897 5897 5896 5896
5907 5905 5904 5903 5902 5901 5900 5899 5898 5898 5897 5897 5896 5896 5896 5896 5896 5896 5896 5897 5897 5898 5898 5898 5898 5899 5899 5899 5899 5899 5898 5898 5898 5897 5897 5897 5896 5896 5896 5895 5895 5894 5894
5907 5906 5904 5903 5901 5900 5900 5899 5899 5898 5897 5896 5896 5895 5894 5894 5894 5894 5895 5895 5896 5896 5897 5897 5897 5897 5897 5897 5897 5897 5897 5897 5896 5895 5895 5894 5894 5894 5893 5893 5892 5891 5891
5907 5906 5904 5903 5901 5900 5899 5898 5898 5897 5896 5896 5895 5894 5894 5893 5892 5893 5893 5894 5895 5895 5895 5896 5896 5896 5896 5895 5895 5895 5895 5894 5893 5893 5892 5892 5891 5891 5890 5890 5889 5888 5888
5907 5905 5904 5903 5901 5900 5899 5898 5897 5896 5895 5895 5894 5893 5892 5892 5891 5891 5892 5892 5893 5893 5894 5894 5894 5893 5893 5893 5892 5892 5892 5891 5890 5890 5889 5888 5888 5887 5886 5886 5885 5884 5884
5907 5905 5904 5902 5901 5900 5898 5897 5896 5895 5895 5894 5893 5892 5892 5891 5891 5891 5891 5891 5891 5892 5892 5892 5892 5891 5891 5890 5889 5889 5888 5888 5887 5886 5886 5885 5884 5883 5882 5882 5881 5880 5879
5907 5905 5903 5902 5900 5899 5898 5897 5896 5895 5894 5893 5892 5892 5891 5891 5890 5890 5890 5890 5890 5890 5890 5890 5889 5889 5888 5887 5887 5886 5885 5884 5884 5883 5882 5881 5880 5879 5878 5877 5876 5875 5875